AEE104 LGAV-LGTS

Flight info

Callsign AEE104
Flight time 0h 36m
Altitude 28000
Route KRO UT162 NEVRA UT514 OSMOS
Aircraft A21N/M-SDE3FGHIRWY/LB1

Departure

Time 2026-05-05 20:04
Airport Athens Eleftherios Venizelos International Airport (LGAV)

Arrival

Time 2026-05-05 20:40
Airport Thessaloniki Macedonia International Airport (LGTS)
Time Latitude Longitude Altitude Speed Heading
2026-05-05 19:38 37.93832 23.95067 291 ft 0 kts 306°
2026-05-05 19:54 37.93831 23.95067 291 ft 0 kts 306°
2026-05-05 19:54 37.93825 23.95078 291 ft 2 kts 306°
2026-05-05 19:54 37.93816 23.95094 290 ft 2 kts 310°
2026-05-05 19:55 37.93805 23.95106 289 ft 2 kts 330°
2026-05-05 19:55 37.93791 23.95114 289 ft 2 kts 344°
2026-05-05 19:55 37.93776 23.95117 288 ft 2 kts 359°
2026-05-05 19:55 37.93761 23.95116 288 ft 2 kts 14°
2026-05-05 19:56 37.93747 23.95109 288 ft 2 kts 29°
2026-05-05 19:56 37.93734 23.95098 288 ft 2 kts 40°
2026-05-05 19:56 37.93722 23.95087 289 ft 2 kts 36°
2026-05-05 19:56 37.93710 23.95075 290 ft 2 kts 37°
2026-05-05 19:57 37.93698 23.95064 290 ft 2 kts 37°
2026-05-05 19:57 37.93687 23.95053 291 ft 2 kts 37°
2026-05-05 19:57 37.93675 23.95041 292 ft 2 kts 37°
2026-05-05 19:57 37.93672 23.95039 292 ft 0 kts 37°
2026-05-05 19:59 37.93679 23.95046 291 ft 2 kts 36°
2026-05-05 19:59 37.93702 23.95070 290 ft 6 kts 47°
2026-05-05 19:59 37.93698 23.95137 286 ft 9 kts 123°
2026-05-05 20:00 37.93678 23.95174 284 ft 5 kts 124°
2026-05-05 20:00 37.93654 23.95216 282 ft 8 kts 130°
2026-05-05 20:00 37.93592 23.95221 281 ft 10 kts 207°
2026-05-05 20:00 37.93529 23.95167 282 ft 11 kts 217°
2026-05-05 20:01 37.93454 23.95093 285 ft 16 kts 219°
2026-05-05 20:01 37.93341 23.94987 285 ft 24 kts 217°
2026-05-05 20:01 37.93201 23.94853 286 ft 25 kts 217°
2026-05-05 20:01 37.93060 23.94719 283 ft 25 kts 217°
2026-05-05 20:02 37.92919 23.94585 280 ft 25 kts 217°
2026-05-05 20:02 37.92780 23.94452 278 ft 24 kts 217°
2026-05-05 20:02 37.92648 23.94327 278 ft 18 kts 218°
2026-05-05 20:02 37.92574 23.94282 278 ft 10 kts 162°
2026-05-05 20:03 37.92530 23.94334 278 ft 7 kts 128°
2026-05-05 20:03 37.92495 23.94394 277 ft 9 kts 126°
2026-05-05 20:03 37.92511 23.94472 275 ft 14 kts 37°
2026-05-05 20:03 37.92721 23.94673 278 ft 73 kts 37°
2026-05-05 20:04 37.93314 23.95238 275 ft 138 kts 36°
2026-05-05 20:04 37.94230 23.96103 395 ft 178 kts 35°
2026-05-05 20:04 37.95240 23.97033 1011 ft 183 kts 36°
2026-05-05 20:04 37.96232 23.97992 1827 ft 179 kts 37°
2026-05-05 20:05 37.97201 23.98943 2560 ft 179 kts 37°
2026-05-05 20:05 37.98179 23.99896 3198 ft 178 kts 36°
2026-05-05 20:05 37.99163 24.00849 3719 ft 184 kts 36°
2026-05-05 20:05 38.00215 24.01861 4082 ft 199 kts 36°
2026-05-05 20:06 38.01463 24.02714 4405 ft 215 kts 12°
2026-05-05 20:06 38.03041 24.02757 4699 ft 236 kts 357°
2026-05-05 20:06 38.04731 24.02625 5096 ft 254 kts 357°
2026-05-05 20:06 38.06531 24.02270 5689 ft 264 kts 347°
2026-05-05 20:07 38.08295 24.01688 6508 ft 265 kts 346°
2026-05-05 20:07 38.10054 24.01086 7320 ft 265 kts 346°
2026-05-05 20:07 38.11832 24.00493 8106 ft 266 kts 347°
2026-05-05 20:07 38.13621 23.99910 8864 ft 268 kts 347°
2026-05-05 20:08 38.15435 23.99331 9609 ft 269 kts 347°
2026-05-05 20:08 38.17232 23.98764 10319 ft 270 kts 347°
2026-05-05 20:08 38.19073 23.98189 10746 ft 282 kts 347°
2026-05-05 20:08 38.21048 23.97576 11038 ft 298 kts 347°
2026-05-05 20:09 38.23103 23.96938 11318 ft 313 kts 347°
2026-05-05 20:09 38.25286 23.96261 11640 ft 327 kts 347°
2026-05-05 20:09 38.27502 23.95573 12181 ft 332 kts 347°
2026-05-05 20:09 38.29731 23.94881 12785 ft 334 kts 347°
2026-05-05 20:10 38.32000 23.94175 13392 ft 336 kts 347°
2026-05-05 20:10 38.34259 23.93474 13992 ft 338 kts 347°
2026-05-05 20:10 38.36571 23.92756 14577 ft 341 kts 346°
2026-05-05 20:10 38.38872 23.92043 15120 ft 344 kts 346°
2026-05-05 20:11 38.41190 23.91323 15672 ft 346 kts 346°
2026-05-05 20:11 38.43550 23.90588 16208 ft 348 kts 346°
2026-05-05 20:11 38.45878 23.89863 16733 ft 350 kts 345°
2026-05-05 20:11 38.48255 23.89122 17277 ft 351 kts 345°
2026-05-05 20:12 38.50645 23.88376 17776 ft 353 kts 345°
2026-05-05 20:12 38.53018 23.87634 18250 ft 356 kts 345°
2026-05-05 20:12 38.55428 23.86878 18728 ft 358 kts 345°
2026-05-05 20:12 38.57854 23.86121 19212 ft 359 kts 345°
2026-05-05 20:13 38.60289 23.85357 19678 ft 361 kts 345°
2026-05-05 20:13 38.62730 23.84594 20149 ft 362 kts 345°
2026-05-05 20:13 38.65183 23.83826 20574 ft 365 kts 345°
2026-05-05 20:13 38.67651 23.83050 20971 ft 367 kts 344°
2026-05-05 20:14 38.70112 23.82278 21384 ft 369 kts 345°
2026-05-05 20:14 38.72623 23.81489 21835 ft 369 kts 345°
2026-05-05 20:14 38.75123 23.80705 22218 ft 372 kts 344°
2026-05-05 20:14 38.77635 23.79917 22610 ft 373 kts 344°
2026-05-05 20:15 38.80163 23.79121 22983 ft 375 kts 344°
2026-05-05 20:15 38.82673 23.78329 23345 ft 376 kts 344°
2026-05-05 20:15 38.85245 23.77517 23725 ft 378 kts 344°
2026-05-05 20:15 38.87795 23.76715 24084 ft 379 kts 344°
2026-05-05 20:16 38.90363 23.75906 24413 ft 381 kts 344°
2026-05-05 20:16 38.92932 23.75092 24763 ft 382 kts 344°
2026-05-05 20:16 38.95510 23.74278 25087 ft 384 kts 344°
2026-05-05 20:16 38.98104 23.73459 25380 ft 386 kts 343°
2026-05-05 20:17 39.00717 23.72632 25707 ft 387 kts 344°
2026-05-05 20:17 39.03330 23.71804 26044 ft 388 kts 343°
2026-05-05 20:17 39.05946 23.70974 26336 ft 389 kts 343°
2026-05-05 20:17 39.08580 23.70138 26625 ft 390 kts 343°
2026-05-05 20:18 39.11229 23.69296 26910 ft 392 kts 343°
2026-05-05 20:18 39.13892 23.68452 27187 ft 393 kts 343°
2026-05-05 20:18 39.16536 23.67611 27510 ft 394 kts 344°
2026-05-05 20:18 39.19207 23.66758 27799 ft 395 kts 343°
2026-05-05 20:19 39.21867 23.65913 28025 ft 397 kts 343°
2026-05-05 20:19 39.27203 23.64212 28038 ft 397 kts 344°
2026-05-05 20:20 39.32579 23.62494 28039 ft 397 kts 343°
2026-05-05 20:20 39.37925 23.60784 28040 ft 397 kts 343°
2026-05-05 20:21 39.43267 23.59074 28039 ft 397 kts 343°
2026-05-05 20:21 39.48649 23.57345 28041 ft 398 kts 343°
2026-05-05 20:22 39.54015 23.55619 28037 ft 398 kts 343°
2026-05-05 20:22 39.59388 23.53889 27984 ft 395 kts 344°
2026-05-05 20:22 39.62035 23.53035 27597 ft 390 kts 343°
2026-05-05 20:23 39.64626 23.52200 26897 ft 389 kts 344°
2026-05-05 20:23 39.67247 23.51350 26174 ft 389 kts 344°
2026-05-05 20:23 39.69881 23.50499 25535 ft 386 kts 344°
2026-05-05 20:23 39.72451 23.49667 24946 ft 383 kts 344°
2026-05-05 20:24 39.75034 23.48833 24346 ft 380 kts 344°
2026-05-05 20:24 39.77576 23.48006 23709 ft 378 kts 345°
2026-05-05 20:24 39.80128 23.47179 23099 ft 376 kts 345°
2026-05-05 20:24 39.82664 23.46355 22531 ft 373 kts 345°
2026-05-05 20:25 39.85160 23.45543 21947 ft 371 kts 345°
2026-05-05 20:25 39.87642 23.44737 21362 ft 370 kts 345°
2026-05-05 20:25 39.90137 23.43925 20786 ft 367 kts 345°
2026-05-05 20:25 39.92585 23.43128 20221 ft 365 kts 345°
2026-05-05 20:26 39.95015 23.42260 19655 ft 363 kts 341°
2026-05-05 20:26 39.97346 23.41059 19086 ft 361 kts 335°
2026-05-05 20:26 39.99574 23.39513 18497 ft 360 kts 329°
2026-05-05 20:26 40.01662 23.37761 17930 ft 359 kts 327°
2026-05-05 20:27 40.03730 23.35956 17373 ft 357 kts 327°
2026-05-05 20:27 40.05840 23.34303 16831 ft 355 kts 333°
2026-05-05 20:27 40.08070 23.32883 16301 ft 353 kts 335°
2026-05-05 20:27 40.10293 23.31546 15761 ft 351 kts 337°
2026-05-05 20:28 40.12542 23.30405 15352 ft 344 kts 340°
2026-05-05 20:28 40.14769 23.29338 14993 ft 338 kts 340°
2026-05-05 20:28 40.16980 23.28280 14166 ft 347 kts 340°
2026-05-05 20:28 40.19261 23.27180 13239 ft 358 kts 340°
2026-05-05 20:29 40.21634 23.26033 12230 ft 368 kts 340°
2026-05-05 20:29 40.24041 23.24871 11220 ft 377 kts 340°
2026-05-05 20:29 40.26473 23.23695 10365 ft 368 kts 340°
2026-05-05 20:29 40.28800 23.22566 9829 ft 346 kts 340°
2026-05-05 20:30 40.30954 23.21517 9672 ft 317 kts 340°
2026-05-05 20:30 40.32996 23.20522 9541 ft 302 kts 340°
2026-05-05 20:30 40.34917 23.19589 9412 ft 289 kts 340°
2026-05-05 20:30 40.36765 23.18694 9278 ft 277 kts 340°
2026-05-05 20:31 40.38555 23.17829 9138 ft 272 kts 340°
2026-05-05 20:31 40.40324 23.16977 8780 ft 271 kts 340°
2026-05-05 20:31 40.42101 23.16122 8347 ft 272 kts 340°
2026-05-05 20:31 40.43857 23.15284 7954 ft 271 kts 340°
2026-05-05 20:32 40.45594 23.14278 7546 ft 271 kts 333°
2026-05-05 20:32 40.47230 23.13092 7162 ft 270 kts 330°
2026-05-05 20:32 40.48872 23.11864 6773 ft 269 kts 330°
2026-05-05 20:32 40.50510 23.10755 6402 ft 268 kts 334°
2026-05-05 20:33 40.52199 23.09720 6011 ft 267 kts 335°
2026-05-05 20:33 40.53891 23.08705 5638 ft 266 kts 335°
2026-05-05 20:33 40.55582 23.07697 5242 ft 266 kts 335°
2026-05-05 20:33 40.57259 23.06702 4862 ft 265 kts 335°
2026-05-05 20:34 40.58940 23.05708 4473 ft 265 kts 335°
2026-05-05 20:34 40.60616 23.04722 4078 ft 265 kts 335°
2026-05-05 20:34 40.62302 23.03727 3676 ft 266 kts 335°
2026-05-05 20:34 40.63987 23.02737 3399 ft 261 kts 335°
2026-05-05 20:35 40.65542 23.01634 3232 ft 252 kts 327°
2026-05-05 20:35 40.67004 23.00394 3062 ft 243 kts 326°
2026-05-05 20:35 40.68385 22.99178 3018 ft 240 kts 326°
2026-05-05 20:35 40.69762 22.97907 3008 ft 241 kts 319°
2026-05-05 20:36 40.70713 22.96143 2997 ft 234 kts 287°
2026-05-05 20:36 40.70807 22.94093 2984 ft 223 kts 253°
2026-05-05 20:36 40.70046 22.92364 2999 ft 221 kts 220°
2026-05-05 20:36 40.68693 22.91481 3000 ft 220 kts 187°
2026-05-05 20:37 40.67177 22.91693 2824 ft 219 kts 160°
2026-05-05 20:37 40.65767 22.92416 2548 ft 218 kts 158°
2026-05-05 20:37 40.64342 22.93073 2268 ft 216 kts 161°
2026-05-05 20:37 40.62909 22.93618 2062 ft 207 kts 164°
2026-05-05 20:38 40.61525 22.94064 1751 ft 200 kts 165°
2026-05-05 20:38 40.60233 22.94463 1490 ft 184 kts 165°
2026-05-05 20:38 40.59030 22.94842 1234 ft 167 kts 164°
2026-05-05 20:38 40.57958 22.95184 992 ft 151 kts 164°
2026-05-05 20:39 40.56980 22.95498 745 ft 138 kts 163°
2026-05-05 20:39 40.56059 22.95808 591 ft 137 kts 163°
2026-05-05 20:39 40.55117 22.96100 463 ft 140 kts 165°
2026-05-05 20:39 40.54160 22.96396 295 ft 140 kts 165°
2026-05-05 20:40 40.53222 22.96698 123 ft 139 kts 165°
2026-05-05 20:40 40.52296 22.96992 10 ft 126 kts 166°
2026-05-05 20:40 40.51781 22.97156 10 ft 56 kts 166°
2026-05-05 20:40 40.51562 22.97240 10 ft 14 kts 153°
2026-05-05 20:41 40.51514 22.97322 12 ft 9 kts 98°
2026-05-05 20:41 40.51544 22.97395 12 ft 10 kts 21°
2026-05-05 20:41 40.51626 22.97386 10 ft 13 kts 348°
2026-05-05 20:41 40.51725 22.97354 10 ft 17 kts 346°
2026-05-05 20:42 40.51858 22.97312 10 ft 22 kts 346°
2026-05-05 20:42 40.52018 22.97260 10 ft 25 kts 347°
2026-05-05 20:42 40.52201 22.97202 10 ft 28 kts 346°
2026-05-05 20:42 40.52337 22.97161 10 ft 12 kts
2026-05-05 20:43 40.52378 22.97245 10 ft 12 kts 89°
2026-05-05 20:43 40.52335 22.97339 10 ft 12 kts 136°
2026-05-05 20:43 40.52278 22.97415 10 ft 9 kts 118°
2026-05-05 20:43 40.52311 22.97488 10 ft 10 kts 46°
2026-05-05 20:44 40.52342 22.97529 10 ft 0 kts 45°